Location: Rounton
(54.4000°N, 1.3500°W)
Time: 04:03:41
(UTC+00:00)

Vanguard 1 - Pass Details

Date: 05 December 2021
Orbit: 652 x 3830 km, 34.2° (Epoch: 17 January)

Event Time Altitude Azimuth Distance (km) Brightness Sun altitude
Exits shadow 05:48:28 15° 254° (WSW) 6,050 13.5 -19.1°
Maximum altitude 05:57:45 21° 224° (SW) 4,903 13.3 -17.8°
Drops below altitude 10° 06:07:34 10° 181° (S) 4,862 13.8 -16.4°
Sets 06:11:57 0° 166° (SSE) 5,365 14.3 -15.8°
